FW5774 Weather Reports


time (UTC)temp
F
wind
direction
speed
knots
gust
knots
rain 1hr
in
rain 24hr
in
rain mn
in
humidity
%
barometer
mb
20220930170525 51 0 0.0 0.0 0.00 0.09 0.09 95 1013.1
20220930170024 52 0 0.0 0.0 0.00 0.09 0.09 95 1013.3
20220930165504 52 0 0.0 0.0 0.00 0.09 0.09 95 1013.4
20220930165003 52 0 0.0 0.0 0.00 0.09 0.09 95 1013.4
20220930164525 52 0 0.0 0.0 0.00 0.09 0.09 95 1013.2
20220930164004 52 0 0.0 0.0 0.00 0.09 0.09 95 1013.1
20220930163503 52 0 0.0 0.0 0.00 0.09 0.09 95 1013.1
20220930163004 52 0 0.0 0.0 0.00 0.09 0.09 95 1013.0
20220930162524 52 0 0.0 0.0 0.00 0.09 0.09 95 1013.0
20220930162004 52 0 0.0 0.0 0.00 0.09 0.09 95 1012.9
20220930161504 52 0 0.0 0.0 0.00 0.09 0.09 95 1012.9
20220930161004 52 0 0.0 0.0 0.00 0.09 0.09 95 1012.8
20220930160504 52 0 0.0 0.0 0.00 0.09 0.09 95 1012.9
20220930160004 52 0 0.0 0.0 0.00 0.09 0.09 95 1012.8
20220930155504 52 0 0.0 0.0 0.00 0.09 0.09 95 1012.7
20220930155003 52 0 0.0 0.0 0.00 0.09 0.09 95 1012.6
20220930154524 52 0 0.0 0.0 0.00 0.09 0.09 95 1012.6
20220930154003 52 0 0.0 0.0 0.00 0.09 0.09 95 1012.6
20220930153504 52 0 0.0 0.0 0.00 0.09 0.09 95 1012.5
20220930153025 52 0 0.0 0.0 0.00 0.09 0.09 95 1012.4
20220930152524 52 0 0.0 0.0 0.00 0.09 0.09 95 1012.5
20220930152004 52 0 0.0 0.0 0.00 0.09 0.09 94 1012.5
20220930151524 52 0 0.0 0.0 0.00 0.09 0.09 95 1012.5
20220930151024 52 0 0.0 0.0 0.00 0.09 0.09 95 1012.5
20220930150504 52 0 0.0 0.0 0.00 0.09 0.09 95 1012.3
20220930150004 52 0 0.0 0.0 0.00 0.09 0.09 95 1012.2
20220930145504 52 0 0.0 0.0 0.00 0.09 0.09 95 1012.2
20220930145004 52 307 0.0 0.9 0.00 0.09 0.09 95 1012.1
20220930144505 52 359 0.9 2.6 0.00 0.09 0.09 95 1012.1
20220930144005 52 13 0.9 2.6 0.00 0.09 0.09 95 1012.1
20220930143527 52 49 0.9 3.5 0.00 0.09 0.09 95 1012.0
20220930143005 52 65 1.7 3.5 0.00 0.09 0.09 95 1011.9
20220930142505 52 66 1.7 3.5 0.00 0.09 0.09 95 1011.9
20220930142005 52 69 0.9 3.5 0.00 0.09 0.09 95 1012.0
20220930141526 52 74 1.7 3.5 0.00 0.09 0.09 95 1011.9
20220930141047 52 61 1.7 4.3 0.00 0.09 0.09 95 1012.0
20220930140525 52 41 0.9 4.3 0.00 0.09 0.09 95 1012.0
20220930140005 52 51 0.9 2.6 0.00 0.09 0.09 95 1012.0
20220930135505 52 85 0.0 1.7 0.00 0.09 0.09 95 1012.1
20220930134505 52 80 0.0 1.7 0.00 0.09 0.09 95 1012.1
20220930134005 52 77 0.9 2.6 0.00 0.09 0.09 95 1011.9
20220930133505 52 76 0.9 3.5 0.00 0.09 0.09 95 1012.0
20220930133005 52 65 1.7 3.5 0.00 0.09 0.09 95 1011.9
20220930132505 52 27 0.9 2.6 0.00 0.09 0.09 95 1011.9
20220930132005 52 340 0.0 0.9 0.00 0.09 0.09 95 1011.9
20220930131526 52 337 0.0 1.7 0.00 0.09 0.09 95 1011.9
20220930131005 52 331 0.0 1.7 0.00 0.09 0.09 95 1011.9
20220930130526 52 325 0.0 2.6 0.00 0.09 0.09 95 1011.8
20220930130026 52 329 0.0 2.6 0.00 0.09 0.09 95 1011.8
20220930125526 52 58 0.0 0.9 0.00 0.09 0.09 95 1011.7
20220930125005 52 70 0.9 1.7 0.01 0.09 0.09 95 1011.6
20220930124505 52 64 0.9 2.6 0.01 0.09 0.09 95 1011.6
20220930124005 52 54 0.9 2.6 0.01 0.09 0.09 95 1011.5
20220930123505 52 47 1.7 2.6 0.01 0.09 0.09 95 1011.5
20220930123026 52 34 0.9 2.6 0.01 0.09 0.09 96 1011.3
20220930122505 52 29 0.9 2.6 0.01 0.09 0.09 96 1011.3
20220930122005 52 45 0.9 2.6 0.01 0.09 0.09 96 1011.5
20220930121505 52 299 0.0 0.9 0.01 0.09 0.09 96 1011.4
20220930121026 52 0 0.0 0.0 0.01 0.09 0.09 95 1011.4
20220930120505 52 39 0.0 1.7 0.01 0.09 0.09 96 1011.4
20220930120005 52 33 0.9 2.6 0.02 0.09 0.09 95 1011.3
20220930115526 52 40 0.9 2.6 0.02 0.09 0.09 95 1011.4
20220930115005 52 59 0.9 2.6 0.01 0.08 0.08 95 1011.3
20220930114526 52 69 0.9 3.5 0.01 0.08 0.08 95 1011.4
20220930114005 52 66 0.9 3.5 0.01 0.08 0.08 95 1011.2
20220930113504 52 66 0.9 3.5 0.01 0.08 0.08 95 1011.2
20220930113026 52 74 1.7 3.5 0.01 0.08 0.08 95 1011.2
20220930112504 52 82 1.7 3.5 0.01 0.08 0.08 95 1011.2
20220930112005 52 81 2.6 3.5 0.01 0.08 0.08 95 1011.1
20220930111505 52 77 2.6 3.5 0.01 0.08 0.08 95 1011.1
20220930111046 52 75 1.7 3.5 0.01 0.08 0.08 95 1011.0
20220930110505 52 64 1.7 3.5 0.01 0.08 0.08 95 1011.1
20220930110005 52 72 1.7 3.5 0.00 0.07 0.07 95 1011.1
20220930105504 52 80 1.7 2.6 0.00 0.07 0.07 96 1010.9
20220930105026 52 85 2.6 5.2 0.01 0.07 0.07 96 1011.0
20220930104505 52 85 2.6 5.2 0.01 0.07 0.07 95 1011.0
20220930104005 52 80 2.6 4.3 0.01 0.07 0.07 96 1010.9
20220930103526 51 74 2.6 4.3 0.01 0.07 0.07 96 1010.8
20220930103005 51 69 2.6 6.1 0.01 0.07 0.07 96 1010.7
20220930102505 51 72 3.5 6.1 0.01 0.07 0.07 96 1010.7
20220930102026 51 70 2.6 5.2 0.02 0.07 0.07 96 1010.7
20220930101505 51 72 1.7 5.2 0.02 0.07 0.07 96 1010.7
20220930101005 51 80 1.7 5.2 0.02 0.07 0.07 96 1010.6
20220930100505 51 78 1.7 5.2 0.02 0.07 0.07 96 1010.6
20220930100005 51 76 2.6 5.2 0.02 0.07 0.07 96 1010.6
20220930095505 51 66 2.6 5.2 0.02 0.07 0.07 96 1010.6
20220930095005 51 57 2.6 5.2 0.02 0.06 0.06 96 1010.5
20220930094526 51 62 2.6 5.2 0.02 0.06 0.06 96 1010.4
20220930094047 51 60 2.6 4.3 0.02 0.06 0.06 96 1010.5
20220930093506 50 63 2.6 6.1 0.02 0.06 0.06 96 1010.5
20220930093004 50 64 2.6 6.1 0.02 0.06 0.06 96 1010.5
20220930092504 50 64 2.6 4.3 0.02 0.06 0.06 96 1010.4
20220930092026 50 71 1.7 4.3 0.02 0.06 0.06 96 1010.4
20220930091525 50 56 1.7 4.3 0.02 0.06 0.06 96 1010.4
20220930091005 50 62 1.7 4.3 0.02 0.06 0.06 96 1010.4
20220930090529 51 73 1.7 3.5 0.02 0.06 0.06 96 1010.5
20220930090005 50 72 1.7 4.3 0.02 0.06 0.06 96 1010.4
20220930085505 51 76 1.7 3.5 0.01 0.05 0.05 96 1010.4
20220930085026 50 69 1.7 3.5 0.01 0.05 0.05 96 1010.4
20220930084526 51 59 1.7 3.5 0.01 0.05 0.05 96 1010.3
20220930084025 51 72 2.6 6.1 0.02 0.05 0.05 96 1010.4
20220930083505 51 70 1.7 6.1 0.01 0.04 0.04 96 1010.2
20220930083025 50 39 0.9 4.3 0.01 0.04 0.04 96 1010.2
20220930082505 51 66 1.7 6.1 0.01 0.04 0.04 96 1010.2
20220930082025 51 68 3.5 6.1 0.02 0.04 0.04 96 1010.0
20220930081526 50 67 3.5 6.1 0.02 0.04 0.04 96 1009.9
20220930081026 51 71 2.6 6.1 0.02 0.04 0.04 96 1010.0
20220930080505 50 66 2.6 6.1 0.02 0.04 0.04 96 1010.0
20220930080005 50 69 2.6 5.2 0.02 0.04 0.04 96 1009.9
20220930075526 50 69 2.6 4.3 0.02 0.04 0.04 96 1010.0
20220930075005 50 74 2.6 4.3 0.02 0.04 0.04 96 1009.8
20220930074526 50 77 2.6 5.2 0.02 0.04 0.04 96 1009.8
20220930074006 50 70 2.6 6.1 0.02 0.03 0.03 96 1009.7
20220930073504 50 70 1.7 6.1 0.02 0.03 0.03 96 1009.9
20220930073005 50 74 0.9 3.5 0.02 0.03 0.03 96 1009.8
20220930072504 50 67 1.7 3.5 0.02 0.03 0.03 96 1009.8
20220930072005 50 52 1.7 3.5 0.02 0.02 0.02 96 1009.8
20220930071547 50 56 1.7 3.5 0.02 0.02 0.02 96 1009.8
20220930071026 50 66 1.7 3.5 0.02 0.02 0.02 96 1009.7
20220930070525 50 67 1.7 3.5 0.02 0.02 0.02 96 1009.8
20220930070005 50 66 1.7 3.5 0.02 0.02 0.02 96 1009.8
20220930065505 50 73 1.7 5.2 0.02 0.02 0.02 96 1009.8
20220930065005 50 70 2.6 5.2 0.02 0.02 0.02 96 1009.8
20220930064505 50 68 2.6 5.2 0.02 0.02 0.02 96 1009.7
20220930064025 50 75 2.6 5.2 0.01 0.01 0.01 96 1009.7
20220930063505 50 72 2.6 5.2 0.01 0.01 0.01 96 1009.5
20220930063005 50 75 2.6 6.1 0.01 0.01 0.01 96 1009.5
20220930062504 50 82 3.5 6.1 0.01 0.01 0.01 96 1009.5
20220930062025 50 84 3.5 6.1 0.00 0.00 0.00 96 1009.5
20220930061526 50 80 3.5 6.1 0.00 0.00 0.00 96 1009.4
20220930061004 50 74 2.6 6.1 0.00 0.01 0.00 96 1009.4
20220930060504 50 73 2.6 6.1 0.00 0.01 0.00 96 1009.2
20220930060005 50 75 3.5 8.7 0.00 0.01 0.00 96 1009.2
20220930055505 49 74 3.5 8.7 0.00 0.01 0.00 96 1009.1
20220930055004 49 72 3.5 6.1 0.00 0.01 0.00 96 1009.1
20220930054505 49 69 3.5 6.1 0.00 0.01 0.00 96 1009.0
20220930054026 49 68 3.5 7.0 0.00 0.01 0.00 96 1009.0
20220930053504 49 74 3.5 7.0 0.00 0.01 0.00 96 1009.0
20220930053004 49 77 3.5 6.1 0.00 0.01 0.00 96 1009.1
20220930052505 49 76 3.5 6.1 0.00 0.01 0.00 96 1009.1
20220930052005 49 75 2.6 6.1 0.00 0.01 0.00 96 1009.1
20220930051526 49 78 2.6 6.1 0.00 0.01 0.00 96 1009.1
20220930051026 49 80 2.6 6.1 0.00 0.01 0.00 96 1009.0
20220930050526 49 82 2.6 4.3 0.00 0.01 0.00 96 1009.0
20220930050004 49 85 2.6 6.1 0.00 0.01 0.00 96 1008.9
20220930045525 49 84 2.6 6.1 0.00 0.01 0.00 96 1009.0
20220930045047 48 82 1.7 5.2 0.00 0.01 0.00 96 1008.8
20220930044505 48 78 1.7 5.2 0.00 0.01 0.00 96 1008.9
20220930044025 48 78 2.6 5.2 0.00 0.01 0.00 96 1008.9
20220930043505 48 78 2.6 3.5 0.00 0.01 0.00 96 1008.8
20220930043004 48 77 2.6 4.3 0.00 0.01 0.00 96 1008.7
20220930042505 48 72 2.6 4.3 0.00 0.01 0.00 96 1008.7
20220930042004 48 68 1.7 4.3 0.00 0.01 0.00 96 1008.7
20220930041525 48 73 1.7 3.5 0.00 0.01 0.00 96 1008.7
20220930041047 48 77 1.7 4.3 0.00 0.01 0.00 96 1008.8
20220930040505 48 74 2.6 4.3 0.00 0.01 0.00 96 1008.7
20220930040025 48 73 0.9 3.5 0.00 0.01 0.00 96 1008.6
20220930035504 48 0 0.0 0.0 0.00 0.01 0.00 96 1008.7
20220930035004 48 0 0.0 0.0 0.00 0.01 0.00 96 1008.7
20220930034505 48 0 0.0 0.0 0.00 0.01 0.00 96 1008.7
20220930034004 48 0 0.0 0.0 0.00 0.01 0.00 96 1008.6
20220930033504 47 0 0.0 0.0 0.00 0.01 0.00 96 1008.6
20220930033025 47 0 0.0 0.0 0.00 0.01 0.00 96 1008.5
20220930032504 47 0 0.0 0.0 0.00 0.01 0.00 96 1008.4
20220930032004 47 0 0.0 0.0 0.00 0.01 0.00 96 1008.5
20220930031504 47 80 0.0 0.9 0.00 0.01 0.00 96 1008.4
20220930031004 47 80 0.9 1.7 0.00 0.01 0.00 96 1008.4
20220930030526 47 79 1.7 1.7 0.00 0.01 0.00 96 1008.4
20220930030004 47 78 1.7 2.6 0.00 0.01 0.00 96 1008.5
20220930025525 47 77 0.9 2.6 0.00 0.01 0.00 96 1008.3
20220930025004 47 76 0.0 2.6 0.00 0.01 0.00 96 1008.4
20220930024504 46 0 0.0 0.0 0.00 0.01 0.00 97 1008.4
20220930024005 46 0 0.0 0.0 0.00 0.01 0.00 97 1008.4
20220930023525 46 42 0.0 1.7 0.00 0.01 0.00 97 1008.4
20220930023025 46 54 0.9 2.6 0.00 0.01 0.00 96 1008.3
20220930022505 46 60 0.9 2.6 0.00 0.01 0.00 96 1008.3
20220930022046 46 66 0.9 2.6 0.00 0.01 0.00 97 1008.3
20220930021525 46 77 0.9 2.6 0.00 0.01 0.00 97 1008.2
20220930021004 46 77 0.9 2.6 0.00 0.01 0.00 97 1008.3
20220930020504 46 79 0.9 2.6 0.00 0.01 0.00 97 1008.4
20220930020005 46 0 0.0 0.0 0.00 0.01 0.00 97 1008.3
20220930015547 46 0 0.0 0.0 0.00 0.01 0.00 97 1008.3
20220930015004 45 0 0.0 0.0 0.00 0.01 0.00 97 1008.3
20220930014504 45 0 0.0 0.0 0.00 0.01 0.00 97 1008.4
20220930014004 44 0 0.0 0.0 0.00 0.01 0.00 97 1008.3
20220930013525 44 0 0.0 0.0 0.00 0.01 0.00 97 1008.3
20220930013004 44 0 0.0 0.0 0.00 0.01 0.00 97 1008.2
20220930012504 44 0 0.0 0.0 0.00 0.01 0.00 97 1008.2
20220930012004 44 0 0.0 0.0 0.00 0.01 0.00 96 1008.3
20220930011504 44 0 0.0 0.0 0.00 0.01 0.00 97 1008.2
20220930011004 44 0 0.0 0.0 0.00 0.01 0.00 97 1008.2
20220930010525 44 0 0.0 0.0 0.00 0.01 0.00 97 1008.3
20220930010004 44 0 0.0 0.0 0.00 0.02 0.00 97 1008.2
20220930005504 44 0 0.0 0.0 0.00 0.02 0.00 97 1008.3
20220930005004 43 0 0.0 0.0 0.00 0.02 0.00 97 1008.2
20220930004504 43 0 0.0 0.0 0.00 0.02 0.00 96 1008.1
20220930004026 43 0 0.0 0.0 0.00 0.02 0.00 96 1008.2
20220930003504 43 0 0.0 0.0 0.00 0.02 0.00 96 1008.1
20220930003004 43 0 0.0 0.0 0.00 0.02 0.00 96 1008.0
20220930002504 44 0 0.0 0.0 0.00 0.02 0.00 96 1008.0
20220930002004 44 0 0.0 0.0 0.00 0.02 0.00 96 1008.0
20220930001504 44 0 0.0 0.0 0.00 0.02 0.00 96 1008.1
20220930001004 44 0 0.0 0.0 0.00 0.02 0.00 96 1008.2
20220930000504 43 0 0.0 0.0 0.00 0.02 0.00 96 1008.1
20220930000004 43 0 0.0 0.0 0.00 0.02 0.00 96 1008.1
20220929235504 43 0 0.0 0.0 0.00 0.02 0.00 96 1008.1
20220929235025 44 0 0.0 0.0 0.00 0.02 0.00 96 1008.1
20220929234504 43 0 0.0 0.0 0.00 0.02 0.00 96 1008.1
20220929234026 43 0 0.0 0.0 0.00 0.02 0.00 96 1008.1
20220929233504 43 0 0.0 0.0 0.00 0.02 0.00 96 1008.2
20220929233004 43 246 0.0 0.9 0.00 0.02 0.00 96 1008.2
20220929232546 43 246 0.0 1.7 0.00 0.02 0.00 96 1008.3
20220929232005 43 246 0.0 1.7 0.00 0.02 0.00 96 1008.3
20220929231504 43 246 0.0 0.9 0.00 0.02 0.00 96 1008.2
20220929231025 43 210 0.9 1.7 0.00 0.02 0.00 96 1008.1
20220929230504 42 154 0.9 1.7 0.00 0.02 0.00 96 1008.2
20220929230026 42 107 0.9 1.7 0.00 0.02 0.00 95 1008.1
20220929225504 44 50 0.9 2.6 0.00 0.02 0.00 96 1008.1
20220929225025 44 52 0.9 3.5 0.00 0.02 0.00 97 1008.0
20220929224525 44 44 0.9 3.5 0.00 0.02 0.00 96 1008.0
20220929224004 43 12 0.0 2.6 0.00 0.02 0.00 96 1008.1
20220929223505 43 0 0.0 0.0 0.00 0.02 0.00 96 1008.1
20220929223004 43 0 0.0 0.0 0.00 0.02 0.00 96 1008.1
20220929222504 43 0 0.0 0.0 0.00 0.02 0.00 96 1008.1
20220929222004 43 0 0.0 0.0 0.00 0.02 0.00 96 1008.2
20220929221504 43 0 0.0 0.0 0.00 0.02 0.00 96 1008.1
20220929221005 43 0 0.0 0.0 0.00 0.02 0.00 95 1008.1
20220929220504 43 0 0.0 0.0 0.00 0.02 0.00 95 1008.0
20220929220049 44 0 0.0 0.0 0.00 0.03 0.00 95 1008.1
20220929215546 44 0 0.0 0.0 0.00 0.03 0.03 96 1008.2
20220929215025 44 0 0.0 0.0 0.00 0.03 0.03 96 1008.2
20220929214525 45 0 0.0 0.0 0.00 0.03 0.03 96 1008.2
20220929214004 44 0 0.0 0.0 0.00 0.03 0.03 96 1008.2
20220929213505 44 0 0.0 0.0 0.00 0.03 0.03 96 1008.2
20220929213005 44 0 0.0 0.0 0.00 0.03 0.03 96 1008.2
20220929212504 44 0 0.0 0.0 0.00 0.03 0.03 96 1008.2
20220929212004 44 0 0.0 0.0 0.00 0.03 0.03 95 1008.1
20220929211503 45 0 0.0 0.0 0.00 0.03 0.03 95 1008.2
20220929211004 45 0 0.0 0.0 0.00 0.03 0.03 96 1008.2
20220929210504 45 0 0.0 0.0 0.00 0.03 0.03 96 1008.0
20220929210025 45 0 0.0 0.0 0.00 0.03 0.03 96 1008.0
20220929205504 45 0 0.0 0.0 0.00 0.03 0.03 96 1007.9
20220929205004 44 0 0.0 0.0 0.00 0.03 0.03 95 1007.6
20220929204504 44 11 0.0 0.9 0.00 0.03 0.03 95 1007.5
20220929204004 44 9 0.9 1.7 0.00 0.03 0.03 95 1007.6
20220929203504 44 8 0.9 1.7 0.00 0.03 0.03 95 1007.5
20220929203004 45 5 0.0 1.7 0.00 0.03 0.03 95 1007.4
20220929202525 46 22 0.9 2.6 0.00 0.03 0.03 95 1007.4
20220929202004 46 48 0.9 2.6 0.00 0.03 0.03 95 1007.2
20220929201525 46 68 0.0 1.7 0.00 0.03 0.03 95 1007.1
20220929201004 45 80 0.0 0.9 0.00 0.03 0.03 95 1007.1
20220929200504 45 0 0.0 0.0 0.00 0.03 0.03 95 1007.0
20220929200004 45 0 0.0 0.0 0.00 0.03 0.03 95 1006.9
20220929195525 45 0 0.0 0.0 0.00 0.03 0.03 95 1006.9
20220929195046 45 0 0.0 0.0 0.00 0.03 0.03 95 1007.0
20220929194504 45 0 0.0 0.0 0.00 0.03 0.03 94 1007.1
20220929194004 46 80 0.0 0.9 0.00 0.03 0.03 94 1007.1
20220929193504 46 80 0.0 0.9 0.00 0.03 0.03 94 1007.0
20220929193004 46 80 0.0 0.9 0.00 0.03 0.03 94 1007.0
20220929192525 46 80 0.0 0.9 0.00 0.03 0.03 94 1006.8
20220929192004 46 80 0.0 1.7 0.00 0.03 0.03 94 1007.0
20220929191504 46 81 0.9 2.6 0.00 0.03 0.03 94 1006.8
20220929191004 47 81 1.7 3.5 0.00 0.03 0.03 94 1006.8
20220929190504 47 88 1.7 3.5 0.00 0.03 0.03 94 1006.8
20220929190004 46 94 1.7 3.5 0.00 0.03 0.03 93 1006.6
20220929185504 46 89 2.6 3.5 0.00 0.03 0.03 93 1006.7
20220929185004 47 88 2.6 5.2 0.00 0.03 0.03 93 1006.6
20220929184525 47 89 2.6 5.2 0.00 0.03 0.03 93 1006.6
20220929184003 47 83 2.6 3.5 0.00 0.03 0.03 93 1006.6
20220929183525 47 86 2.6 5.2 0.00 0.03 0.03 93 1006.5
20220929183025 47 94 2.6 5.2 0.00 0.03 0.03 93 1006.6
20220929182504 47 89 2.6 5.2 0.00 0.03 0.03 92 1006.5
20220929182004 48 81 2.6 4.3 0.00 0.03 0.03 93 1006.5
20220929181525 48 84 2.6 6.1 0.00 0.03 0.03 93 1006.5
20220929181004 47 96 2.6 6.1 0.00 0.03 0.03 93 1006.5
20220929180524 47 105 1.7 5.2 0.00 0.03 0.03 93 1006.6
20220929180004 47 104 2.6 3.5 0.00 0.03 0.03 93 1006.7
20220929175503 47 113 1.7 3.5 0.00 0.03 0.03 93 1006.6
20220929175025 47 123 1.7 3.5 0.00 0.03 0.03 93 1006.6
20220929174503 47 112 1.7 3.5 0.00 0.03 0.03 92 1006.5
20220929174004 47 103 0.9 2.6 0.00 0.03 0.03 92 1006.5
20220929173504 47 97 1.7 3.5 0.00 0.03 0.03 92 1006.4
20220929173025 48 95 2.6 3.5 0.00 0.03 0.03 92 1006.5
20220929172525 48 101 1.7 3.5 0.00 0.03 0.03 92 1006.2
20220929172003 48 116 0.9 2.6 0.00 0.03 0.03 92 1006.3
20220929171504 48 119 0.9 2.6 0.00 0.03 0.03 92 1006.3
20220929171025 48 120 0.9 2.6 0.00 0.03 0.03 92 1006.2